Погода в Листвянке

Россия / Новосибирская область     54°08′59″N   83°43′00″E
темп.,
°C
ветер,
м/с
пор.,
м/с
влажн.,
%
обл.,
%
осадки,
мм/ч
давл.,
гПа
погр.,
м
2 марта, вт
вт201:00−4зсз2597100 2.8 1009257
04:00−7з3796100 0.4 1010239
07:00−10зсз3795100 1.2 1012242
10:00−12зсз369591 0.2 1013240
13:00−11з469394 0.3 1016388
16:00−10з469199 0.1 1016523
19:00−12зсз229699 0.1 101725
22:00−16с1199100 0.1 101820
3 марта, ср
ср301:00−18юв1110093 0.1 101820
04:00−19в0110096 0.0 101820
07:00−19ююз1110097 0.1 101920
10:00−15юз119598 0.0 102093
13:00−12юз239199 0.2 1020315
16:00−10юз3591100 0.1 1021491
19:00−11юз3795100 0.2 1022258
22:00−15ююз389894 0.0 1024137
4 марта, чт
чт401:00−15ююз5119797 0.1 1025291
04:00−16ю51298100 0.0 1024269
07:00−15ю61395100 0.1 1024351
10:00−10ю81590100 0.1 1023639
13:00−8ююз81489100 0.2 1022635
16:00−5ююз81390100 0.1 1021749
19:00−5ююз71487100 0.1 1020652
22:00−7ююз71587100 0.0 1019499
5 марта, пт
пт501:00−9ю71587100 0.0 1018423
04:00−8ю61581100 0.0 1016433
07:00−9ю6168083 0.0 1015444
10:00−6ю81594100 0.7 1013703
13:00−4юз91494100 2.4 1013929
16:00−2зюз101476100 0.4 10161424
19:00−7юз7158471 0.4 1021630
22:00−6юз81883100 0.0 1021821
6 марта, сб
сб601:00−6юз91785100 0.0 1021983
04:00−7юз91793100 0.9 1020834
07:00−7юз91788100 1.5 1020752
10:00−7ююз91784100 0.0 1020754
13:00−6ююз101881100 0.0 1018809
16:00−4ююз101876100 0.0 1016966
19:00−5юз91878100 0.0 1015929
22:00−6юз91793100 0.3 1014881